• In Russia
  • List of Countries
  • For 7 days
  • Water Temperature
  • Satellite Maps
  • Weather Map
  • Weather Widgets
  • user-avatar
    Login

    Hourly Weather Kitzbuhel

    Today, 12 December, Wednesday

    Time Temperature Precipitation Wind Pressure Humidity
    00:00 -7°C° 0.1 mm 2 mps 677 mmHg 91%
    01:00 -6°C° 0 mm 2 mps 677 mmHg 89%
    02:00 -7°C° 0.1 mm 2 mps 677 mmHg 89%
    03:00 -7°C° 0.1 mm 2 mps 677 mmHg 88%
    04:00 -7°C° 0.1 mm 2 mps 677 mmHg 88%
    05:00 -7°C° 0.1 mm 2 mps 677 mmHg 87%
    06:00 -7°C° 0.1 mm 2 mps 677 mmHg 87%
    07:00 -6°C° 0 mm 2 mps 677 mmHg 88%
    08:00 -6°C° 0.2 mm 2 mps 677 mmHg 87%
    09:00 -5°C° 0.2 mm 2 mps 677 mmHg 86%
    10:00 -5°C° 0.2 mm 2 mps 677 mmHg 85%
    11:00 -4°C° 0.2 mm 2 mps 677 mmHg 82%
    12:00 -1°C° 0.2 mm 1 mps 677 mmHg 79%
    13:00 0°C° 0.2 mm 1 mps 677 mmHg 77%
    14:00 -1°C° 0.1 mm 1 mps 676 mmHg 81%
    15:00 -2°C° 0.1 mm 1 mps 676 mmHg 85%
    16:00 -4°C° 0.1 mm 0 mps 676 mmHg 90%
    17:00 -4°C° 0 mm 1 mps 676 mmHg 90%
    18:00 -6°C° 0 mm 1 mps 676 mmHg 90%
    19:00 -7°C° 0 mm 1 mps 676 mmHg 91%
    20:00 -7°C° 0 mm 1 mps 676 mmHg 89%
    21:00 -7°C° 0 mm 1 mps 676 mmHg 88%
    22:00 -7°C° 0 mm 1 mps 676 mmHg 86%
    23:00 -8°C° 0 mm 1 mps 676 mmHg 86%

    Tomorrow, 13 December, Thursday

    Time Temperature Precipitation Wind Pressure Humidity
    00:00 -8°C° 0 mm 1 mps 675 mmHg 85%
    01:00 -8°C° 0 mm 1 mps 675 mmHg 84%
    02:00 -8°C° 0 mm 1 mps 675 mmHg 84%
    03:00 -8°C° 0 mm 1 mps 674 mmHg 84%
    04:00 -9°C° 0 mm 1 mps 674 mmHg 84%
    05:00 -9°C° 0 mm 1 mps 674 mmHg 84%
    06:00 -9°C° 0 mm 1 mps 674 mmHg 84%
    07:00 -9°C° 0 mm 1 mps 674 mmHg 84%
    08:00 -9°C° 0 mm 2 mps 674 mmHg 82%
    09:00 -8°C° 0 mm 2 mps 674 mmHg 79%
    10:00 -6°C° 0 mm 2 mps 674 mmHg 77%
    11:00 -5°C° 0 mm 2 mps 674 mmHg 75%
    12:00 -4°C° 0 mm 2 mps 674 mmHg 74%
    13:00 -3°C° 0 mm 2 mps 673 mmHg 72%
    14:00 -4°C° 0 mm 2 mps 673 mmHg 77%
    15:00 -5°C° 0 mm 2 mps 673 mmHg 82%
    16:00 -4°C° 0 mm 1 mps 672 mmHg 87%
    17:00 -7°C° 0 mm 2 mps 672 mmHg 87%
    18:00 -7°C° 0 mm 2 mps 673 mmHg 88%
    19:00 -8°C° 0 mm 2 mps 673 mmHg 89%
    20:00 -8°C° 0 mm 2 mps 673 mmHg 87%
    21:00 -8°C° 0 mm 2 mps 673 mmHg 86%
    22:00 -9°C° 0 mm 2 mps 673 mmHg 85%
    23:00 -8°C° 0 mm 1 mps 673 mmHg 85%

    Day after tomorrow, 14 December, Friday

    Time Temperature Precipitation Wind Pressure Humidity
    00:00 -8°C° 0 mm 1 mps 673 mmHg 84%
    01:00 -8°C° 0 mm 1 mps 673 mmHg 84%
    02:00 -8°C° 0 mm 1 mps 673 mmHg 84%
    03:00 -8°C° 0 mm 1 mps 673 mmHg 84%
    04:00 -8°C° 0 mm 1 mps 673 mmHg 83%
    05:00 -8°C° 0 mm 1 mps 673 mmHg 83%
    06:00 -8°C° 0 mm 1 mps 673 mmHg 82%
    07:00 -8°C° 0 mm 1 mps 673 mmHg 82%
    08:00 -7°C° 0 mm 1 mps 673 mmHg 80%
    09:00 -6°C° 0 mm 1 mps 673 mmHg 78%
    10:00 -3°C° 0 mm 1 mps 674 mmHg 76%
    11:00 -2°C° 0 mm 1 mps 674 mmHg 73%
    12:00 -1°C° 0 mm 1 mps 674 mmHg 71%
    13:00 0°C° 0 mm 1 mps 674 mmHg 69%
    14:00 -1°C° 0 mm 1 mps 674 mmHg 75%
    15:00 -3°C° 0 mm 1 mps 673 mmHg 82%
    16:00 -4°C° 0 mm 1 mps 673 mmHg 89%
    17:00 -6°C° 0 mm 1 mps 673 mmHg 89%
    18:00 -6°C° 0 mm 1 mps 674 mmHg 90%
    19:00 -7°C° 0 mm 1 mps 674 mmHg 90%
    20:00 -7°C° 0 mm 1 mps 674 mmHg 89%
    21:00 -7°C° 0 mm 1 mps 675 mmHg 87%
    22:00 -7°C° 0 mm 1 mps 675 mmHg 85%
    23:00 -8°C° 0 mm 1 mps 675 mmHg 85%

    15 December, Saturday

    Time Temperature Precipitation Wind Pressure Humidity
    00:00 -8°C° 0 mm 1 mps 675 mmHg 84%
    01:00 -8°C° 0 mm 1 mps 675 mmHg 83%
    02:00 -8°C° 0 mm 1 mps 675 mmHg 85%
    03:00 -8°C° 0 mm 1 mps 675 mmHg 86%
    04:00 -8°C° 0 mm 1 mps 676 mmHg 87%
    05:00 -8°C° 0 mm 1 mps 676 mmHg 87%
    06:00 -8°C° 0 mm 1 mps 676 mmHg 88%
    07:00 -8°C° 0 mm 1 mps 676 mmHg 89%
    08:00 -7°C° 0 mm 1 mps 677 mmHg 87%
    09:00 -6°C° 0 mm 1 mps 677 mmHg 86%
    10:00 -4°C° 0 mm 1 mps 677 mmHg 85%
    11:00 -4°C° 0 mm 1 mps 677 mmHg 83%
    12:00 -3°C° 0 mm 1 mps 677 mmHg 82%
    13:00 -2°C° 0 mm 1 mps 677 mmHg 81%
    14:00 -3°C° 0 mm 1 mps 677 mmHg 84%
    15:00 -4°C° 0 mm 1 mps 677 mmHg 87%
    16:00 -4°C° 0 mm 1 mps 677 mmHg 90%
    17:00 -6°C° 0 mm 1 mps 677 mmHg 90%
    18:00 -7°C° 0 mm 1 mps 677 mmHg 90%
    19:00 -8°C° 0 mm 1 mps 677 mmHg 91%
    20:00 -8°C° 0 mm 1 mps 677 mmHg 88%
    21:00 -8°C° 0 mm 1 mps 677 mmHg 85%
    22:00 -8°C° 0 mm 1 mps 677 mmHg 82%
    23:00 -8°C° 0 mm 1 mps 677 mmHg 79%

    16 December, Sunday

    Time Temperature Precipitation Wind Pressure Humidity
    00:00 -8°C° 0 mm 1 mps 677 mmHg 76%
    01:00 -8°C° 0 mm 1 mps 676 mmHg 72%
    02:00 -7°C° 0 mm 1 mps 676 mmHg 70%
    03:00 -7°C° 0 mm 1 mps 676 mmHg 67%
    04:00 -7°C° 0 mm 1 mps 676 mmHg 65%
    05:00 -7°C° 0 mm 1 mps 676 mmHg 63%
    06:00 -7°C° 0 mm 1 mps 675 mmHg 61%
    07:00 -6°C° 0 mm 1 mps 675 mmHg 58%
    08:00 -4°C° 0 mm 1 mps 676 mmHg 58%
    09:00 -2°C° 0 mm 1 mps 676 mmHg 57%
    10:00 -2°C° 0 mm 2 mps 676 mmHg 56%
    11:00 -1°C° 0 mm 2 mps 675 mmHg 58%
    12:00 +2°C° 0 mm 2 mps 675 mmHg 60%
    13:00 +3°C° 0 mm 2 mps 675 mmHg 62%
    14:00 +4°C° 0.1 mm 1 mps 675 mmHg 63%
    15:00 +3°C° 0.1 mm 1 mps 675 mmHg 64%
    16:00 +3°C° 0.1 mm 1 mps 674 mmHg 65%
    17:00 +2°C° 0 mm 1 mps 674 mmHg 63%
    18:00 +2°C° 0 mm 1 mps 674 mmHg 62%
    19:00 -1°C° 0 mm 2 mps 674 mmHg 60%
    20:00 -1°C° 0 mm 2 mps 674 mmHg 62%
    21:00 -1°C° 0 mm 2 mps 674 mmHg 63%
    22:00 -2°C° 0 mm 2 mps 674 mmHg 64%
    23:00 -2°C° 0 mm 2 mps 674 mmHg 67%

    17 December, Monday

    Time Temperature Precipitation Wind Pressure Humidity
    00:00 +1°C° 0 mm 1 mps 674 mmHg 69%
    01:00 +1°C° 0 mm 1 mps 674 mmHg 72%
    02:00 +1°C° 0.1 mm 1 mps 674 mmHg 75%
    03:00 +1°C° 0.1 mm 1 mps 674 mmHg 79%
    04:00 0°C° 0.1 mm 1 mps 674 mmHg 82%
    05:00 0°C° 0.2 mm 1 mps 674 mmHg 84%
    06:00 0°C° 0.2 mm 1 mps 674 mmHg 85%
    07:00 +1°C° 0.2 mm 1 mps 675 mmHg 87%
    08:00 +1°C° 0.3 mm 1 mps 675 mmHg 89%
    09:00 +1°C° 0.3 mm 1 mps 675 mmHg 90%
    10:00 +2°C° 0.3 mm 1 mps 676 mmHg 92%
    11:00 +2°C° 0.2 mm 1 mps 676 mmHg 92%
    12:00 +3°C° 0.2 mm 1 mps 676 mmHg 92%
    13:00 +4°C° 0.2 mm 1 mps 676 mmHg 92%
    14:00 +2°C° 0.2 mm 0 mps 676 mmHg 93%
    15:00 +2°C° 0.2 mm 0 mps 676 mmHg 95%
    16:00 +1°C° 0.2 mm 0 mps 676 mmHg 96%
    17:00 +2°C° 0.2 mm 1 mps 676 mmHg 96%
    18:00 +1°C° 0.2 mm 1 mps 677 mmHg 96%
    19:00 +1°C° 0.2 mm 1 mps 677 mmHg 95%
    20:00 +1°C° 0.2 mm 1 mps 677 mmHg 95%
    21:00 +1°C° 0.2 mm 1 mps 678 mmHg 95%
    22:00 +1°C° 0.2 mm 1 mps 678 mmHg 95%
    23:00 +1°C° 0.3 mm 1 mps 678 mmHg 95%
    Show more